Time,TemperatureF,DewpointF,PressureIn,WindDirection,WindDirectionDegrees,WindSpeedMPH,WindSpeedGustMPH,Humidity,HourlyPrecipIn,Conditions,Clouds,dailyrainin,SoftwareType,DateUTC
2013-04-05 00:00:00,40.3,26.3,30.02,SW,226,3.0,7.0,57,0.00,,CLR,0.00,VWS V13.01,2013-04-05 04:00:00,
2013-04-05 00:01:00,40.2,26.2,30.02,WSW,239,0.0,7.0,57,0.00,,CLR,0.00,VWS V13.01,2013-04-05 04:01:00,
2013-04-05 00:07:00,40.0,26.4,30.02,SSW,205,3.0,5.0,58,0.00,,CLR,0.00,VWS V13.01,2013-04-05 04:07:00,
2013-04-05 00:12:00,39.9,26.8,30.02,SW,218,3.0,7.0,59,0.00,,CLR,0.00,VWS V13.01,2013-04-05 04:12:00,
2013-04-05 00:17:00,39.8,26.7,30.02,South,190,1.0,10.0,59,0.00,,CLR,0.00,VWS V13.01,2013-04-05 04:17:00,
2013-04-05 00:22:00,39.7,27.0,30.01,SSW,204,2.0,10.0,60,0.00,,CLR,0.00,VWS V13.01,2013-04-05 04:22:00,
2013-04-05 00:27:00,39.6,26.9,30.01,SSW,207,0.0,10.0,60,0.00,,CLR,0.00,VWS V13.01,2013-04-05 04:27:00,
2013-04-05 00:32:00,39.5,27.2,30.01,WSW,250,2.0,6.0,61,0.00,,CLR,0.00,VWS V13.01,2013-04-05 04:32:00,
2013-04-05 00:37:00,39.4,27.1,30.00,SSW,195,4.0,12.0,61,0.00,,CLR,0.00,VWS V13.01,2013-04-05 04:37:00,
2013-04-05 00:42:00,39.3,27.4,30.00,SSW,194,1.0,12.0,62,0.00,,CLR,0.00,VWS V13.01,2013-04-05 04:42:00,
2013-04-05 00:47:00,39.2,27.7,30.00,SSW,202,3.0,12.0,63,0.00,,CLR,0.00,VWS V13.01,2013-04-05 04:47:00,
2013-04-05 00:52:00,39.1,27.6,30.00,SW,217,3.0,12.0,63,0.00,,CLR,0.00,VWS V13.01,2013-04-05 04:52:00,
2013-04-05 00:57:00,39.1,27.6,30.00,SSW,209,1.0,12.0,63,0.00,,CLR,0.00,VWS V13.01,2013-04-05 04:57:00,
2013-04-05 01:02:00,39.0,27.9,30.00,WSW,258,4.0,11.0,64,0.00,,CLR,0.00,VWS V13.01,2013-04-05 05:02:00,
2013-04-05 01:07:00,39.0,28.2,29.99,SSW,209,2.0,11.0,65,0.00,,CLR,0.00,VWS V13.01,2013-04-05 05:07:00,
2013-04-05 01:12:00,39.0,28.2,29.99,West,267,1.0,11.0,65,0.00,,CLR,0.00,VWS V13.01,2013-04-05 05:12:00,
2013-04-05 01:17:00,39.0,28.6,29.99,SW,234,3.0,11.0,66,0.00,,CLR,0.00,VWS V13.01,2013-04-05 05:17:00,
2013-04-05 01:22:00,38.9,28.5,29.99,SW,226,3.0,11.0,66,0.00,,CLR,0.00,VWS V13.01,2013-04-05 05:22:00,
2013-04-05 01:27:00,38.9,28.9,29.99,SW,233,2.0,11.0,67,0.00,,CLR,0.00,VWS V13.01,2013-04-05 05:27:00,
2013-04-05 01:32:00,38.7,28.7,29.99,West,272,5.0,5.0,67,0.00,,CLR,0.00,VWS V13.01,2013-04-05 05:32:00,
2013-04-05 01:37:00,38.6,29.0,29.98,WSW,249,2.0,6.0,68,0.00,,CLR,0.00,VWS V13.01,2013-04-05 05:37:00,
2013-04-05 01:42:00,38.5,28.9,29.98,SSW,210,1.0,7.0,68,0.00,,CLR,0.00,VWS V13.01,2013-04-05 05:42:00,
2013-04-05 01:48:00,38.5,29.2,29.98,WSW,238,2.0,7.0,69,0.00,,CLR,0.00,VWS V13.01,2013-04-05 05:48:00,
2013-04-05 01:53:00,38.4,29.1,29.98,SW,228,4.0,10.0,69,0.00,,CLR,0.00,VWS V13.01,2013-04-05 05:53:00,
2013-04-05 01:58:00,38.4,29.1,29.97,WSW,252,8.0,10.0,69,0.00,,CLR,0.00,VWS V13.01,2013-04-05 05:58:00,
2013-04-05 02:03:00,38.4,29.5,29.97,SW,225,2.0,6.0,70,0.00,,CLR,0.00,VWS V13.01,2013-04-05 06:03:00,
2013-04-05 02:08:00,38.4,29.5,29.97,SW,235,6.0,12.0,70,0.00,,CLR,0.00,VWS V13.01,2013-04-05 06:08:00,
2013-04-05 02:13:00,38.4,29.5,29.97,SSW,213,2.0,12.0,70,0.00,,CLR,0.00,VWS V13.01,2013-04-05 06:13:00,
2013-04-05 02:18:00,38.4,29.8,29.97,SE,142,6.0,12.0,71,0.00,,CLR,0.00,VWS V13.01,2013-04-05 06:18:00,
2013-04-05 02:23:00,38.2,29.6,29.96,SSW,201,3.0,12.0,71,0.00,,CLR,0.00,VWS V13.01,2013-04-05 06:23:00,
2013-04-05 02:28:00,38.0,29.5,29.96,SW,233,5.0,12.0,71,0.00,,CLR,0.00,VWS V13.01,2013-04-05 06:28:00,
2013-04-05 02:33:00,38.0,29.5,29.95,SW,233,5.0,13.0,71,0.00,,CLR,0.00,VWS V13.01,2013-04-05 06:33:00,
2013-04-05 02:38:00,38.0,29.8,29.95,WSW,252,3.0,13.0,72,0.00,,CLR,0.00,VWS V13.01,2013-04-05 06:38:00,
2013-04-05 02:43:00,38.0,29.5,29.95,South,182,3.0,13.0,71,0.00,,CLR,0.00,VWS V13.01,2013-04-05 06:43:00,
2013-04-05 02:48:00,38.0,29.5,29.95,SW,236,2.0,13.0,71,0.00,,CLR,0.00,VWS V13.01,2013-04-05 06:48:00,
2013-04-05 02:53:00,37.9,29.7,29.95,SSW,202,3.0,13.0,72,0.00,,CLR,0.00,VWS V13.01,2013-04-05 06:53:00,
2013-04-05 02:59:00,37.9,29.4,29.95,WSW,254,1.0,13.0,71,0.00,,CLR,0.00,VWS V13.01,2013-04-05 06:59:00,
2013-04-05 03:05:00,37.9,29.4,29.95,SW,227,2.0,9.0,71,0.00,,CLR,0.00,VWS V13.01,2013-04-05 07:05:00,
2013-04-05 03:10:00,37.9,29.4,29.95,WSW,256,5.0,9.0,71,0.00,,CLR,0.00,VWS V13.01,2013-04-05 07:10:00,
2013-04-05 03:15:00,37.8,29.3,29.94,SSW,209,3.0,9.0,71,0.00,,CLR,0.00,VWS V13.01,2013-04-05 07:15:00,
2013-04-05 03:20:00,37.7,29.2,29.94,SW,232,3.0,9.0,71,0.00,,CLR,0.00,VWS V13.01,2013-04-05 07:20:00,
2013-04-05 03:25:00,37.7,29.2,29.94,WSW,237,2.0,9.0,71,0.00,,CLR,0.00,VWS V13.01,2013-04-05 07:25:00,
2013-04-05 03:30:00,37.6,29.1,29.93,WSW,247,3.0,9.0,71,0.00,,CLR,0.00,VWS V13.01,2013-04-05 07:30:00,
2013-04-05 03:36:00,37.5,29.0,29.93,South,184,5.0,7.0,71,0.00,,CLR,0.00,VWS V13.01,2013-04-05 07:36:00,
2013-04-05 03:41:00,37.4,28.9,29.93,WSW,256,2.0,7.0,71,0.00,,CLR,0.00,VWS V13.01,2013-04-05 07:41:00,
2013-04-05 03:46:00,37.4,28.9,29.93,WSW,248,2.0,7.0,71,0.00,,CLR,0.00,VWS V13.01,2013-04-05 07:46:00,
2013-04-05 03:51:00,37.2,28.7,29.93,WSW,257,4.0,7.0,71,0.00,,CLR,0.00,VWS V13.01,2013-04-05 07:51:00,
2013-04-05 03:56:00,37.1,28.6,29.93,WSW,242,1.0,7.0,71,0.00,,CLR,0.00,VWS V13.01,2013-04-05 07:56:00,
2013-04-05 04:01:00,37.1,28.6,29.92,WSW,237,2.0,2.0,71,0.00,,CLR,0.00,VWS V13.01,2013-04-05 08:01:00,
2013-04-05 04:06:00,37.1,28.9,29.92,SW,225,1.0,7.0,72,0.00,,CLR,0.00,VWS V13.01,2013-04-05 08:06:00,
2013-04-05 04:12:00,37.0,28.8,29.92,SW,230,2.0,7.0,72,0.00,,CLR,0.00,VWS V13.01,2013-04-05 08:12:00,
2013-04-05 04:17:00,37.0,28.8,29.92,South,190,2.0,9.0,72,0.00,,CLR,0.00,VWS V13.01,2013-04-05 08:17:00,
2013-04-05 04:22:00,37.0,28.8,29.92,SW,229,0.0,9.0,72,0.00,,CLR,0.00,VWS V13.01,2013-04-05 08:22:00,
2013-04-05 04:27:00,37.1,28.9,29.92,WSW,242,1.0,9.0,72,0.00,,CLR,0.00,VWS V13.01,2013-04-05 08:27:00,
2013-04-05 04:32:00,37.2,29.0,29.92,WSW,257,3.0,4.0,72,0.00,,CLR,0.00,VWS V13.01,2013-04-05 08:32:00,
2013-04-05 04:37:00,37.3,29.1,29.92,WSW,241,1.0,5.0,72,0.00,,CLR,0.00,VWS V13.01,2013-04-05 08:37:00,
2013-04-05 04:42:00,37.4,28.9,29.92,West,266,0.0,5.0,71,0.00,,CLR,0.00,VWS V13.01,2013-04-05 08:42:00,
2013-04-05 04:47:00,37.4,28.9,29.92,West,266,0.0,5.0,71,0.00,,CLR,0.00,VWS V13.01,2013-04-05 08:47:00,
2013-04-05 04:52:00,37.3,28.8,29.92,WSW,245,4.0,5.0,71,0.00,,CLR,0.00,VWS V13.01,2013-04-05 08:52:00,
2013-04-05 04:57:00,37.3,29.1,29.92,WSW,240,0.0,6.0,72,0.00,,CLR,0.00,VWS V13.01,2013-04-05 08:57:00,
2013-04-05 05:02:00,37.2,29.0,29.92,SW,217,2.0,4.0,72,0.00,,CLR,0.00,VWS V13.01,2013-04-05 09:02:00,
2013-04-05 05:07:00,37.0,28.8,29.91,WSW,238,0.0,5.0,72,0.00,,CLR,0.00,VWS V13.01,2013-04-05 09:07:00,
2013-04-05 05:12:00,36.8,29.0,29.91,WSW,238,0.0,5.0,73,0.00,,CLR,0.00,VWS V13.01,2013-04-05 09:12:00,
2013-04-05 05:17:00,36.6,28.8,29.91,WSW,238,0.0,5.0,73,0.00,,CLR,0.00,VWS V13.01,2013-04-05 09:17:00,
2013-04-05 05:22:00,36.3,28.5,29.91,SW,218,1.0,5.0,73,0.00,,CLR,0.00,VWS V13.01,2013-04-05 09:22:00,
2013-04-05 05:27:00,36.2,28.4,29.91,SW,219,0.0,5.0,73,0.00,,CLR,0.00,VWS V13.01,2013-04-05 09:27:00,
2013-04-05 05:33:00,36.1,28.6,29.91,SW,219,0.0,0.0,74,0.00,,CLR,0.00,VWS V13.01,2013-04-05 09:33:00,
2013-04-05 05:38:00,35.9,28.4,29.90,SW,219,0.0,3.0,74,0.00,,CLR,0.00,VWS V13.01,2013-04-05 09:38:00,
2013-04-05 05:43:00,35.7,28.2,29.90,SW,219,0.0,3.0,74,0.00,,CLR,0.00,VWS V13.01,2013-04-05 09:43:00,
2013-04-05 05:48:00,35.5,28.4,29.90,SW,219,0.0,3.0,75,0.00,,CLR,0.00,VWS V13.01,2013-04-05 09:48:00,
2013-04-05 05:53:00,35.4,28.3,29.90,SW,219,0.0,3.0,75,0.00,,CLR,0.00,VWS V13.01,2013-04-05 09:53:00,
2013-04-05 05:58:00,35.3,28.2,29.89,SW,219,0.0,3.0,75,0.00,,CLR,0.00,VWS V13.01,2013-04-05 09:58:00,
2013-04-05 06:03:00,35.3,28.2,29.89,SW,226,1.0,2.0,75,0.00,,CLR,0.00,VWS V13.01,2013-04-05 10:03:00,
2013-04-05 06:08:00,35.4,28.3,29.89,SSW,211,3.0,6.0,75,0.00,,CLR,0.00,VWS V13.01,2013-04-05 10:08:00,
2013-04-05 06:13:00,35.5,28.4,29.89,West,264,1.0,6.0,75,0.00,,CLR,0.00,VWS V13.01,2013-04-05 10:13:00,
2013-04-05 06:18:00,35.7,28.6,29.89,WSW,248,0.0,6.0,75,0.00,,CLR,0.00,VWS V13.01,2013-04-05 10:18:00,
2013-04-05 06:23:00,36.1,28.6,29.89,WSW,250,2.0,6.0,74,0.00,,CLR,0.00,VWS V13.01,2013-04-05 10:23:00,
2013-04-05 06:28:00,36.4,28.6,29.89,SW,234,3.0,6.0,73,0.00,,CLR,0.00,VWS V13.01,2013-04-05 10:28:00,
2013-04-05 06:33:00,36.6,28.8,29.89,WSW,244,5.0,9.0,73,0.00,,CLR,0.00,VWS V13.01,2013-04-05 10:33:00,
2013-04-05 06:38:00,37.0,28.8,29.89,WSW,246,0.0,9.0,72,0.00,,CLR,0.00,VWS V13.01,2013-04-05 10:38:00,
2013-04-05 06:43:00,37.5,29.0,29.89,WSW,246,0.0,11.0,71,0.00,,CLR,0.00,VWS V13.01,2013-04-05 10:43:00,
2013-04-05 06:48:00,37.8,28.9,29.90,SW,232,1.0,11.0,70,0.00,,CLR,0.00,VWS V13.01,2013-04-05 10:48:00,
2013-04-05 06:53:00,38.0,29.1,29.90,WSW,256,1.0,11.0,70,0.00,,CLR,0.00,VWS V13.01,2013-04-05 10:53:00,
2013-04-05 06:58:00,38.2,29.3,29.90,West,259,0.0,11.0,70,0.00,,CLR,0.00,VWS V13.01,2013-04-05 10:58:00,
2013-04-05 07:04:00,38.2,28.9,29.90,SW,223,0.0,1.0,69,0.00,,CLR,0.00,VWS V13.01,2013-04-05 11:04:00,
2013-04-05 07:09:00,38.3,29.4,29.90,West,264,0.0,9.0,70,0.00,,CLR,0.00,VWS V13.01,2013-04-05 11:09:00,
2013-04-05 07:14:00,38.4,29.1,29.90,SSW,205,0.0,9.0,69,0.00,,CLR,0.00,VWS V13.01,2013-04-05 11:14:00,
2013-04-05 07:19:00,38.4,29.1,29.90,SW,232,0.0,9.0,69,0.00,,CLR,0.00,VWS V13.01,2013-04-05 11:19:00,
2013-04-05 07:24:00,38.5,29.2,29.90,SW,232,0.0,9.0,69,0.00,,CLR,0.00,VWS V13.01,2013-04-05 11:24:00,
2013-04-05 07:29:00,38.6,29.3,29.90,SW,232,0.0,9.0,69,0.00,,CLR,0.00,VWS V13.01,2013-04-05 11:29:00,
2013-04-05 07:35:00,38.7,29.4,29.90,WSW,244,0.0,2.0,69,0.00,,CLR,0.00,VWS V13.01,2013-04-05 11:35:00,
2013-04-05 07:40:00,38.8,29.9,29.89,WSW,244,1.0,3.0,70,0.00,,CLR,0.00,VWS V13.01,2013-04-05 11:40:00,
2013-04-05 07:45:00,39.0,29.7,29.90,West,264,1.0,5.0,69,0.00,,OVC200,0.00,VWS V13.01,2013-04-05 11:45:00,
2013-04-05 07:50:00,39.1,29.8,29.89,SW,221,2.0,5.0,69,0.00,,OVC200,0.00,VWS V13.01,2013-04-05 11:50:00,
2013-04-05 07:55:00,39.3,29.6,29.89,SW,232,0.0,9.0,68,0.00,,OVC200,0.00,VWS V13.01,2013-04-05 11:55:00,
2013-04-05 08:00:00,39.5,29.8,29.89,SW,232,1.0,9.0,68,0.00,,OVC200,0.00,VWS V13.01,2013-04-05 12:00:00,
2013-04-05 08:05:00,39.7,29.7,29.88,SW,223,1.0,6.0,67,0.00,,OVC200,0.00,VWS V13.01,2013-04-05 12:05:00,
2013-04-05 08:10:00,40.0,29.9,29.88,SSW,193,2.0,6.0,67,0.00,,OVC200,0.00,VWS V13.01,2013-04-05 12:10:00,
2013-04-05 08:15:00,40.3,29.5,29.88,West,281,3.0,9.0,65,0.00,,OVC200,0.00,VWS V13.01,2013-04-05 12:15:00,
2013-04-05 08:20:00,40.6,29.8,29.88,West,267,7.0,13.0,65,0.00,,OVC200,0.00,VWS V13.01,2013-04-05 12:20:00,
2013-04-05 08:25:00,40.9,29.7,29.87,SW,234,3.0,13.0,64,0.00,,OVC200,0.00,VWS V13.01,2013-04-05 12:25:00,
2013-04-05 08:31:00,41.1,29.9,29.87,SE,144,0.0,13.0,64,0.00,,OVC200,0.00,VWS V13.01,2013-04-05 12:31:00,
2013-04-05 08:36:00,41.4,30.1,29.86,West,277,1.0,6.0,64,0.00,,OVC200,0.00,VWS V13.01,2013-04-05 12:36:00,
2013-04-05 08:41:00,41.6,30.3,29.86,WSW,254,0.0,6.0,64,0.00,,OVC200,0.00,VWS V13.01,2013-04-05 12:41:00,
2013-04-05 08:46:00,41.9,30.2,29.86,WSW,254,1.0,6.0,63,0.00,,OVC200,0.00,VWS V13.01,2013-04-05 12:46:00,
2013-04-05 08:51:00,42.3,30.2,29.86,WSW,247,0.0,6.0,62,0.00,,OVC200,0.00,VWS V13.01,2013-04-05 12:51:00,
2013-04-05 08:56:00,42.6,30.1,29.86,SW,230,5.0,10.0,61,0.00,,OVC200,0.00,VWS V13.01,2013-04-05 12:56:00,
2013-04-05 09:01:00,42.9,30.0,29.85,WSW,247,1.0,10.0,60,0.00,,BKN250,0.00,VWS V13.01,2013-04-05 13:01:00,
2013-04-05 09:06:00,43.2,29.9,29.85,West,261,1.0,7.0,59,0.00,,BKN250,0.00,VWS V13.01,2013-04-05 13:06:00,
2013-04-05 09:12:00,43.4,30.0,29.86,SW,219,3.0,7.0,59,0.00,,BKN250,0.00,VWS V13.01,2013-04-05 13:12:00,
2013-04-05 09:17:00,43.5,29.7,29.86,West,261,1.0,7.0,58,0.00,,BKN250,0.00,VWS V13.01,2013-04-05 13:17:00,
2013-04-05 09:22:00,43.6,29.8,29.86,West,270,6.0,7.0,58,0.00,,BKN250,0.00,VWS V13.01,2013-04-05 13:22:00,
2013-04-05 09:27:00,43.8,29.6,29.86,SSE,155,1.0,7.0,57,0.00,,BKN250,0.00,VWS V13.01,2013-04-05 13:27:00,
2013-04-05 09:32:00,43.9,29.2,29.85,SW,229,1.0,3.0,56,0.00,,BKN250,0.00,VWS V13.01,2013-04-05 13:32:00,
2013-04-05 09:37:00,44.3,28.7,29.85,WSW,257,3.0,7.0,54,0.00,,BKN250,0.00,VWS V13.01,2013-04-05 13:37:00,
2013-04-05 09:42:00,44.7,28.6,29.85,WSW,252,1.0,7.0,53,0.00,,BKN250,0.00,VWS V13.01,2013-04-05 13:42:00,
2013-04-05 09:47:00,45.1,27.6,29.85,SW,218,2.0,10.0,50,0.00,,FEW060,0.00,VWS V13.01,2013-04-05 13:47:00,
2013-04-05 09:52:00,45.4,27.9,29.84,West,260,3.0,10.0,50,0.00,,FEW060,0.00,VWS V13.01,2013-04-05 13:52:00,
2013-04-05 09:58:00,46.1,29.0,29.84,WSW,250,5.0,10.0,51,0.00,,FEW060,0.00,VWS V13.01,2013-04-05 13:58:00,
2013-04-05 10:03:00,46.5,28.4,29.84,South,190,3.0,6.0,49,0.00,,FEW060,0.00,VWS V13.01,2013-04-05 14:03:00,
2013-04-05 10:08:00,46.7,27.6,29.83,WSW,246,4.0,12.0,47,0.00,,FEW060,0.00,VWS V13.01,2013-04-05 14:08:00,
2013-04-05 10:13:00,47.0,27.8,29.84,West,273,4.0,12.0,47,0.00,,FEW060,0.00,VWS V13.01,2013-04-05 14:13:00,
2013-04-05 10:18:00,47.3,27.6,29.83,WSW,250,4.0,12.0,46,0.00,,FEW060,0.00,VWS V13.01,2013-04-05 14:18:00,
2013-04-05 10:23:00,47.3,27.6,29.83,West,269,1.0,13.0,46,0.00,,FEW060,0.00,VWS V13.01,2013-04-05 14:23:00,
2013-04-05 10:28:00,47.4,27.7,29.83,West,261,4.0,13.0,46,0.00,,FEW060,0.00,VWS V13.01,2013-04-05 14:28:00,
2013-04-05 10:33:00,47.6,26.8,29.83,West,265,1.0,5.0,44,0.00,,FEW060,0.00,VWS V13.01,2013-04-05 14:33:00,
2013-04-05 10:38:00,47.7,27.4,29.82,WSW,257,4.0,5.0,45,0.00,,FEW060,0.00,VWS V13.01,2013-04-05 14:38:00,
2013-04-05 10:43:00,48.0,27.7,29.82,WNW,294,0.0,9.0,45,0.00,,FEW060,0.00,VWS V13.01,2013-04-05 14:43:00,
2013-04-05 10:48:00,48.2,27.9,29.82,WNW,286,2.0,9.0,45,0.00,,BKN070,0.00,VWS V13.01,2013-04-05 14:48:00,
2013-04-05 10:53:00,47.9,27.0,29.81,West,279,7.0,10.0,44,0.00,,BKN070,0.00,VWS V13.01,2013-04-05 14:53:00,
2013-04-05 10:59:00,48.2,27.3,29.81,WSW,246,4.0,12.0,44,0.00,,BKN070,0.00,VWS V13.01,2013-04-05 14:59:00,
2013-04-05 11:04:00,48.2,28.4,29.81,WSW,241,4.0,6.0,46,0.00,,BKN070,0.00,VWS V13.01,2013-04-05 15:04:00,
2013-04-05 11:09:00,48.2,27.9,29.81,WSW,256,2.0,6.0,45,0.00,,BKN070,0.00,VWS V13.01,2013-04-05 15:09:00,
2013-04-05 11:14:00,47.9,27.6,29.81,WSW,243,2.0,6.0,45,0.00,,BKN070,0.00,VWS V13.01,2013-04-05 15:14:00,
2013-04-05 11:19:00,47.9,28.1,29.80,WSW,254,2.0,6.0,46,0.00,,BKN070,0.00,VWS V13.01,2013-04-05 15:19:00,
2013-04-05 11:24:00,47.7,28.0,29.80,SW,233,2.0,10.0,46,0.00,,BKN070,0.00,VWS V13.01,2013-04-05 15:24:00,
2013-04-05 11:29:00,47.8,29.1,29.80,SW,229,2.0,10.0,48,0.00,,BKN070,0.00,VWS V13.01,2013-04-05 15:29:00,
2013-04-05 11:35:00,47.9,28.7,29.80,WSW,248,4.0,10.0,47,0.00,,BKN070,0.00,VWS V13.01,2013-04-05 15:35:00,
2013-04-05 11:40:00,48.1,29.9,29.80,SW,230,1.0,10.0,49,0.00,,BKN070,0.00,VWS V13.01,2013-04-05 15:40:00,
2013-04-05 11:45:00,48.3,29.5,29.80,WSW,246,3.0,10.0,48,0.00,,OVC070,0.00,VWS V13.01,2013-04-05 15:45:00,
2013-04-05 11:50:00,48.4,30.1,29.79,SSW,202,3.0,10.0,49,0.00,,OVC070,0.00,VWS V13.01,2013-04-05 15:50:00,
2013-04-05 11:55:00,48.5,29.2,29.79,WSW,248,0.0,10.0,47,0.00,,OVC070,0.00,VWS V13.01,2013-04-05 15:55:00,
2013-04-05 12:00:00,48.8,29.0,29.78,WSW,250,0.0,10.0,46,0.00,,OVC070,0.00,VWS V13.01,2013-04-05 16:00:00,
2013-04-05 12:05:00,49.5,30.1,29.78,WSW,237,3.0,6.0,47,0.00,,OVC070,0.00,VWS V13.01,2013-04-05 16:05:00,
2013-04-05 12:10:00,50.1,30.1,29.77,WSW,257,6.0,6.0,46,0.00,,OVC070,0.00,VWS V13.01,2013-04-05 16:10:00,
2013-04-05 12:15:00,50.2,28.6,29.77,WSW,245,2.0,10.0,43,0.00,,OVC070,0.00,VWS V13.01,2013-04-05 16:15:00,
2013-04-05 12:20:00,50.7,28.5,29.77,WSW,242,0.0,10.0,42,0.00,,OVC070,0.00,VWS V13.01,2013-04-05 16:20:00,
2013-04-05 12:25:00,51.2,28.9,29.76,WSW,239,0.0,10.0,42,0.00,,OVC070,0.00,VWS V13.01,2013-04-05 16:25:00,
2013-04-05 12:30:00,51.7,29.9,29.75,SSW,192,5.0,10.0,43,0.00,,OVC070,0.00,VWS V13.01,2013-04-05 16:30:00,
2013-04-05 12:35:00,51.7,28.8,29.75,WSW,258,3.0,5.0,41,0.00,,OVC070,0.00,VWS V13.01,2013-04-05 16:35:00,
2013-04-05 12:40:00,52.3,29.3,29.75,WSW,249,2.0,6.0,41,0.00,,OVC070,0.00,VWS V13.01,2013-04-05 16:40:00,
2013-04-05 12:45:00,53.3,29.0,29.74,SSW,192,0.0,7.0,39,0.00,,OVC047,0.00,VWS V13.01,2013-04-05 16:45:00,
2013-04-05 12:50:00,54.0,30.2,29.73,SW,226,3.0,7.0,40,0.00,,OVC047,0.00,VWS V13.01,2013-04-05 16:50:00,
2013-04-05 12:55:00,54.9,29.8,29.73,South,169,2.0,7.0,38,0.00,,OVC047,0.00,VWS V13.01,2013-04-05 16:55:00,
2013-04-05 13:00:00,54.8,29.7,29.72,SSW,213,1.0,7.0,38,0.00,,OVC047,0.00,VWS V13.01,2013-04-05 17:00:00,
2013-04-05 13:05:00,55.5,26.9,29.72,WSW,258,5.0,7.0,33,0.00,,OVC047,0.00,VWS V13.01,2013-04-05 17:05:00,
2013-04-05 13:10:00,56.0,28.8,29.72,West,271,3.0,7.0,35,0.00,,OVC047,0.00,VWS V13.01,2013-04-05 17:10:00,
2013-04-05 13:15:00,56.2,30.3,29.71,SW,220,6.0,9.0,37,0.00,,OVC047,0.00,VWS V13.01,2013-04-05 17:15:00,
2013-04-05 13:20:00,57.0,31.0,29.71,WSW,244,6.0,9.0,37,0.00,,OVC047,0.00,VWS V13.01,2013-04-05 17:20:00,
2013-04-05 13:26:00,57.6,28.7,29.71,SW,228,2.0,9.0,33,0.00,,OVC047,0.00,VWS V13.01,2013-04-05 17:26:00,
2013-04-05 13:31:00,57.6,28.7,29.70,WNW,282,0.0,9.0,33,0.00,,OVC047,0.00,VWS V13.01,2013-04-05 17:31:00,
2013-04-05 13:36:00,57.4,27.8,29.69,SW,220,3.0,5.0,32,0.00,,OVC047,0.00,VWS V13.01,2013-04-05 17:36:00,
2013-04-05 13:41:00,57.7,26.5,29.69,West,271,1.0,5.0,30,0.00,,OVC047,0.00,VWS V13.01,2013-04-05 17:41:00,
2013-04-05 13:47:00,58.3,26.2,29.69,WSW,258,0.0,5.0,29,0.00,,BKN045,0.00,VWS V13.01,2013-04-05 17:47:00,
2013-04-05 13:52:00,58.3,26.2,29.68,SE,139,2.0,5.0,29,0.00,,BKN045,0.00,VWS V13.01,2013-04-05 17:52:00,
2013-04-05 13:57:00,58.6,27.3,29.68,SW,234,0.0,8.0,30,0.00,,BKN045,0.00,VWS V13.01,2013-04-05 17:57:00,
2013-04-05 14:02:00,59.0,27.6,29.67,NNW,329,2.0,4.0,30,0.00,,BKN045,0.00,VWS V13.01,2013-04-05 18:02:00,
2013-04-05 14:07:00,59.5,28.1,29.67,West,272,0.0,4.0,30,0.00,,BKN045,0.00,VWS V13.01,2013-04-05 18:07:00,
2013-04-05 14:12:00,59.8,25.8,29.67,WNW,286,0.0,4.0,27,0.00,,BKN045,0.00,VWS V13.01,2013-04-05 18:12:00,
2013-04-05 14:17:00,59.2,24.4,29.66,SE,128,1.0,4.0,26,0.00,,BKN045,0.00,VWS V13.01,2013-04-05 18:17:00,
2013-04-05 14:22:00,58.9,25.0,29.65,SE,128,0.0,4.0,27,0.00,,BKN045,0.00,VWS V13.01,2013-04-05 18:22:00,
2013-04-05 14:27:00,59.1,26.9,29.65,NW,321,4.0,4.0,29,0.00,,BKN045,0.00,VWS V13.01,2013-04-05 18:27:00,
2013-04-05 14:32:00,59.8,27.5,29.65,NNW,329,3.0,5.0,29,0.00,,BKN045,0.00,VWS V13.01,2013-04-05 18:32:00,
2013-04-05 14:38:00,60.4,25.4,29.65,NW,306,0.0,5.0,26,0.00,,BKN045,0.00,VWS V13.01,2013-04-05 18:38:00,
2013-04-05 14:43:00,60.6,26.5,29.64,WNW,283,2.0,5.0,27,0.00,,BKN045,0.00,VWS V13.01,2013-04-05 18:43:00,
2013-04-05 14:48:00,60.9,25.8,29.63,WNW,303,1.0,7.0,26,0.00,,CLR,0.00,VWS V13.01,2013-04-05 18:48:00,
2013-04-05 14:53:00,61.1,27.8,29.63,WNW,296,2.0,7.0,28,0.00,,CLR,0.00,VWS V13.01,2013-04-05 18:53:00,
2013-04-05 14:58:00,61.4,26.2,29.62,WNW,300,1.0,7.0,26,0.00,,CLR,0.00,VWS V13.01,2013-04-05 18:58:00,
2013-04-05 15:03:00,62.0,25.8,29.62,NW,308,0.0,2.0,25,0.00,,CLR,0.00,VWS V13.01,2013-04-05 19:03:00,
2013-04-05 15:08:00,61.8,24.6,29.62,NW,305,0.0,6.0,24,0.00,,CLR,0.00,VWS V13.01,2013-04-05 19:08:00,
2013-04-05 15:13:00,61.8,26.6,29.62,NW,305,0.0,6.0,26,0.00,,CLR,0.00,VWS V13.01,2013-04-05 19:13:00,
2013-04-05 15:18:00,62.0,26.8,29.62,NE,42,3.0,6.0,26,0.00,,CLR,0.00,VWS V13.01,2013-04-05 19:18:00,
2013-04-05 15:23:00,61.9,22.7,29.62,SSW,194,2.0,7.0,22,0.00,,CLR,0.00,VWS V13.01,2013-04-05 19:23:00,
2013-04-05 15:28:00,62.0,23.8,29.61,NW,304,2.0,7.0,23,0.00,,CLR,0.00,VWS V13.01,2013-04-05 19:28:00,
2013-04-05 15:33:00,62.7,23.3,29.61,WNW,297,2.0,3.0,22,0.00,,CLR,0.00,VWS V13.01,2013-04-05 19:33:00,
2013-04-05 15:38:00,62.9,21.2,29.61,SSW,204,4.0,18.0,20,0.00,,CLR,0.00,VWS V13.01,2013-04-05 19:38:00,
2013-04-05 15:43:00,63.0,22.5,29.60,NNE,31,1.0,18.0,21,0.00,,CLR,0.00,VWS V13.01,2013-04-05 19:43:00,
2013-04-05 15:48:00,63.5,22.9,29.60,NNE,18,1.0,18.0,21,0.00,,CLR,0.00,VWS V13.01,2013-04-05 19:48:00,
2013-04-05 15:53:00,64.3,24.7,29.60,NNE,32,3.0,18.0,22,0.00,,CLR,0.00,VWS V13.01,2013-04-05 19:53:00,
2013-04-05 15:58:00,64.2,25.7,29.60,NNW,329,6.0,18.0,23,0.00,,CLR,0.00,VWS V13.01,2013-04-05 19:58:00,
2013-04-05 16:04:00,63.6,27.2,29.60,NNE,15,9.0,10.0,25,0.00,,CLR,0.00,VWS V13.01,2013-04-05 20:04:00,
2013-04-05 16:09:00,63.3,25.9,29.60,West,276,2.0,16.0,24,0.00,,CLR,0.00,VWS V13.01,2013-04-05 20:09:00,
2013-04-05 16:14:00,63.1,25.8,29.60,NW,313,3.0,16.0,24,0.00,,CLR,0.00,VWS V13.01,2013-04-05 20:14:00,
2013-04-05 16:19:00,63.2,25.8,29.60,NW,306,0.0,16.0,24,0.00,,CLR,0.00,VWS V13.01,2013-04-05 20:19:00,
2013-04-05 16:24:00,63.5,27.1,29.60,WNW,286,1.0,16.0,25,0.00,,CLR,0.00,VWS V13.01,2013-04-05 20:24:00,
2013-04-05 16:29:00,63.4,25.0,29.60,West,278,0.0,16.0,23,0.00,,CLR,0.00,VWS V13.01,2013-04-05 20:29:00,
2013-04-05 16:34:00,63.2,24.8,29.60,WNW,289,2.0,7.0,23,0.00,,CLR,0.00,VWS V13.01,2013-04-05 20:34:00,
2013-04-05 16:39:00,62.8,24.5,29.60,NW,314,0.0,7.0,23,0.00,,CLR,0.00,VWS V13.01,2013-04-05 20:39:00,
2013-04-05 16:44:00,62.4,24.1,29.60,North,355,1.0,11.0,23,0.00,,CLR,0.00,VWS V13.01,2013-04-05 20:44:00,
2013-04-05 16:49:00,61.9,24.7,29.60,NW,306,1.0,11.0,24,0.00,,SCT200,0.00,VWS V13.01,2013-04-05 20:49:00,
2013-04-05 16:54:00,61.4,24.3,29.60,NNW,336,0.0,11.0,24,0.00,,SCT200,0.00,VWS V13.01,2013-04-05 20:54:00,
2013-04-05 16:59:00,60.8,23.8,29.60,NW,315,0.0,11.0,24,0.00,,SCT200,0.00,VWS V13.01,2013-04-05 20:59:00,
2013-04-05 17:04:00,60.4,24.4,29.60,NNW,348,2.0,10.0,25,0.00,,SCT200,0.00,VWS V13.01,2013-04-05 21:04:00,
2013-04-05 17:10:00,59.9,24.0,29.60,NE,48,3.0,10.0,25,0.00,,SCT200,0.00,VWS V13.01,2013-04-05 21:10:00,
2013-04-05 17:15:00,59.5,23.7,29.61,NW,313,0.0,14.0,25,0.00,,SCT200,0.00,VWS V13.01,2013-04-05 21:15:00,
2013-04-05 17:20:00,59.2,25.3,29.61,NW,317,0.0,14.0,27,0.00,,SCT200,0.00,VWS V13.01,2013-04-05 21:20:00,
2013-04-05 17:25:00,59.0,25.1,29.61,WNW,286,2.0,14.0,27,0.00,,SCT200,0.00,VWS V13.01,2013-04-05 21:25:00,
2013-04-05 17:30:00,58.6,24.8,29.62,NW,321,0.0,14.0,27,0.00,,SCT200,0.00,VWS V13.01,2013-04-05 21:30:00,
2013-04-05 17:35:00,58.2,24.4,29.61,WNW,301,1.0,10.0,27,0.00,,SCT200,0.00,VWS V13.01,2013-04-05 21:35:00,
2013-04-05 17:40:00,57.8,24.1,29.62,WNW,288,3.0,11.0,27,0.00,,SCT200,0.00,VWS V13.01,2013-04-05 21:40:00,
2013-04-05 17:45:00,57.6,23.0,29.62,WNW,294,13.0,13.0,26,0.00,,CLR,0.00,VWS V13.01,2013-04-05 21:45:00,
2013-04-05 17:50:00,57.2,22.6,29.62,WNW,293,0.0,18.0,26,0.00,,CLR,0.00,VWS V13.01,2013-04-05 21:50:00,
2013-04-05 17:55:00,56.9,23.3,29.63,WNW,290,1.0,18.0,27,0.00,,CLR,0.00,VWS V13.01,2013-04-05 21:55:00,
2013-04-05 18:00:00,56.6,23.0,29.63,North,355,9.0,18.0,27,0.00,,CLR,0.00,VWS V13.01,2013-04-05 22:00:00,
2013-04-05 18:06:00,56.3,22.8,29.64,West,273,1.0,5.0,27,0.00,,CLR,0.00,VWS V13.01,2013-04-05 22:06:00,
2013-04-05 18:11:00,56.0,23.4,29.64,NW,308,7.0,11.0,28,0.00,,CLR,0.00,VWS V13.01,2013-04-05 22:11:00,
2013-04-05 18:16:00,55.7,23.1,29.64,SW,236,2.0,11.0,28,0.00,,CLR,0.00,VWS V13.01,2013-04-05 22:16:00,
2013-04-05 18:21:00,55.4,23.7,29.65,NNW,338,6.0,14.0,29,0.00,,CLR,0.00,VWS V13.01,2013-04-05 22:21:00,
2013-04-05 18:26:00,55.2,23.5,29.65,WNW,292,2.0,14.0,29,0.00,,CLR,0.00,VWS V13.01,2013-04-05 22:26:00,
2013-04-05 18:31:00,55.0,22.5,29.65,NW,313,1.0,14.0,28,0.00,,CLR,0.00,VWS V13.01,2013-04-05 22:31:00,
2013-04-05 18:36:00,54.8,23.2,29.65,NW,315,2.0,11.0,29,0.00,,CLR,0.00,VWS V13.01,2013-04-05 22:36:00,
2013-04-05 18:41:00,54.5,22.1,29.66,NW,324,2.0,11.0,28,0.00,,CLR,0.00,VWS V13.01,2013-04-05 22:41:00,
2013-04-05 18:46:00,54.2,21.8,29.66,NNE,12,1.0,14.0,28,0.00,,CLR,0.00,VWS V13.01,2013-04-05 22:46:00,
2013-04-05 18:52:00,53.9,21.6,29.67,WNW,292,0.0,14.0,28,0.00,,CLR,0.00,VWS V13.01,2013-04-05 22:52:00,
2013-04-05 18:57:00,53.6,21.3,29.67,NW,315,0.0,14.0,28,0.00,,CLR,0.00,VWS V13.01,2013-04-05 22:57:00,
2013-04-05 19:02:00,53.4,22.0,29.68,WNW,300,3.0,4.0,29,0.00,,CLR,0.00,VWS V13.01,2013-04-05 23:02:00,
2013-04-05 19:07:00,53.1,20.0,29.68,WNW,296,0.0,11.0,27,0.00,,CLR,0.00,VWS V13.01,2013-04-05 23:07:00,
2013-04-05 19:12:00,52.8,21.4,29.68,WNW,289,0.0,11.0,29,0.00,,CLR,0.00,VWS V13.01,2013-04-05 23:12:00,
2013-04-05 19:17:00,52.6,21.3,29.68,NNW,327,0.0,11.0,29,0.00,,CLR,0.00,VWS V13.01,2013-04-05 23:17:00,
2013-04-05 19:22:00,52.3,21.0,29.69,NW,306,1.0,11.0,29,0.00,,CLR,0.00,VWS V13.01,2013-04-05 23:22:00,
2013-04-05 19:27:00,52.1,20.8,29.69,NW,325,0.0,11.0,29,0.00,,CLR,0.00,VWS V13.01,2013-04-05 23:27:00,
2013-04-05 19:32:00,52.0,22.3,29.69,NW,304,4.0,4.0,31,0.00,,CLR,0.00,VWS V13.01,2013-04-05 23:32:00,
2013-04-05 19:37:00,51.8,22.1,29.69,NNW,333,0.0,5.0,31,0.00,,CLR,0.00,VWS V13.01,2013-04-05 23:37:00,
2013-04-05 19:42:00,51.6,22.7,29.69,North,360,1.0,6.0,32,0.00,,CLR,0.00,VWS V13.01,2013-04-05 23:42:00,
2013-04-05 19:47:00,51.5,21.9,29.70,North,355,6.0,7.0,31,0.00,,CLR,0.00,VWS V13.01,2013-04-05 23:47:00,
2013-04-05 19:52:00,51.4,21.8,29.70,NNW,329,7.0,13.0,31,0.00,,CLR,0.00,VWS V13.01,2013-04-05 23:52:00,
2013-04-05 19:57:00,51.1,23.7,29.70,NNW,347,3.0,14.0,34,0.00,,CLR,0.00,VWS V13.01,2013-04-05 23:57:00,
2013-04-05 20:02:00,50.7,24.7,29.71,North,5,6.0,14.0,36,0.00,,CLR,0.00,VWS V13.01,2013-04-06 00:02:00,
2013-04-05 20:08:00,50.4,25.1,29.71,NW,305,1.0,14.0,37,0.00,,CLR,0.00,VWS V13.01,2013-04-06 00:08:00,
2013-04-05 20:13:00,50.0,25.4,29.72,NNE,12,1.0,14.0,38,0.00,,CLR,0.00,VWS V13.01,2013-04-06 00:13:00,
2013-04-05 20:18:00,49.6,25.0,29.72,North,9,1.0,14.0,38,0.00,,BKN090,0.00,VWS V13.01,2013-04-06 00:18:00,
2013-04-05 20:23:00,49.3,25.4,29.73,NNW,333,1.0,17.0,39,0.00,,BKN090,0.00,VWS V13.01,2013-04-06 00:23:00,
2013-04-05 20:28:00,49.1,25.8,29.73,West,266,0.0,17.0,40,0.00,,BKN090,0.00,VWS V13.01,2013-04-06 00:28:00,
2013-04-05 20:33:00,48.9,25.7,29.74,NNE,28,6.0,7.0,40,0.00,,BKN090,0.00,VWS V13.01,2013-04-06 00:33:00,
2013-04-05 20:38:00,48.7,26.1,29.75,WNW,286,12.0,12.0,41,0.00,,BKN090,0.00,VWS V13.01,2013-04-06 00:38:00,
2013-04-05 20:43:00,48.3,25.1,29.75,NNW,336,5.0,12.0,40,0.00,,BKN090,0.00,VWS V13.01,2013-04-06 00:43:00,
2013-04-05 20:48:00,48.0,25.4,29.76,ENE,58,3.0,18.0,41,0.00,,BKN090,0.00,VWS V13.01,2013-04-06 00:48:00,
2013-04-05 20:53:00,47.7,24.6,29.76,NNW,340,9.0,18.0,40,0.00,,BKN090,0.00,VWS V13.01,2013-04-06 00:53:00,
2013-04-05 20:58:00,47.4,24.9,29.76,WNW,286,0.0,18.0,41,0.00,,BKN090,0.00,VWS V13.01,2013-04-06 00:58:00,
2013-04-05 21:03:00,47.2,25.3,29.77,North,355,3.0,5.0,42,0.00,,BKN090,0.00,VWS V13.01,2013-04-06 01:03:00,
2013-04-05 21:09:00,46.9,24.5,29.77,NW,323,3.0,15.0,41,0.00,,BKN090,0.00,VWS V13.01,2013-04-06 01:09:00,
2013-04-05 21:14:00,46.7,24.8,29.77,NW,316,1.0,15.0,42,0.00,,BKN090,0.00,VWS V13.01,2013-04-06 01:14:00,
2013-04-05 21:19:00,46.4,24.0,29.78,NW,319,0.0,15.0,41,0.00,,BKN090,0.00,VWS V13.01,2013-04-06 01:19:00,
2013-04-05 21:24:00,46.1,24.9,29.78,NW,311,0.0,15.0,43,0.00,,BKN090,0.00,VWS V13.01,2013-04-06 01:24:00,
2013-04-05 21:29:00,45.8,25.1,29.78,NW,321,1.0,15.0,44,0.00,,BKN090,0.00,VWS V13.01,2013-04-06 01:29:00,
2013-04-05 21:34:00,45.5,26.5,29.79,SW,234,3.0,15.0,47,0.00,,BKN090,0.00,VWS V13.01,2013-04-06 01:34:00,
2013-04-05 21:39:00,45.1,25.6,29.79,ENE,65,2.0,15.0,46,0.00,,BKN090,0.00,VWS V13.01,2013-04-06 01:39:00,
2013-04-05 21:44:00,44.9,25.9,29.80,NNW,346,1.0,15.0,47,0.00,,BKN090,0.00,VWS V13.01,2013-04-06 01:44:00,
2013-04-05 21:49:00,44.5,26.0,29.80,North,360,1.0,15.0,48,0.00,,BKN085,0.00,VWS V13.01,2013-04-06 01:49:00,
2013-04-05 21:54:00,44.2,26.3,29.80,NNW,338,10.0,15.0,49,0.00,,BKN085,0.00,VWS V13.01,2013-04-06 01:54:00,
2013-04-05 22:00:00,43.8,26.4,29.81,NW,320,0.0,15.0,50,0.00,,BKN085,0.00,VWS V13.01,2013-04-06 02:00:00,
2013-04-05 22:05:00,43.5,26.6,29.80,West,279,1.0,13.0,51,0.00,,BKN085,0.00,VWS V13.01,2013-04-06 02:05:00,
2013-04-05 22:10:00,43.2,26.8,29.81,North,360,6.0,14.0,52,0.00,,BKN085,0.00,VWS V13.01,2013-04-06 02:10:00,
2013-04-05 22:15:00,42.9,27.0,29.81,NNW,348,10.0,19.0,53,0.00,,BKN085,0.00,VWS V13.01,2013-04-06 02:15:00,
2013-04-05 22:20:00,42.6,27.1,29.81,NW,322,2.0,19.0,54,0.00,,BKN085,0.00,VWS V13.01,2013-04-06 02:20:00,
2013-04-05 22:25:00,42.3,26.9,29.81,NNW,340,0.0,19.0,54,0.00,,BKN085,0.00,VWS V13.01,2013-04-06 02:25:00,
2013-04-05 22:30:00,42.0,27.0,29.81,NW,322,1.0,19.0,55,0.00,,BKN085,0.00,VWS V13.01,2013-04-06 02:30:00,
2013-04-05 22:35:00,41.8,26.8,29.82,WNW,282,0.0,5.0,55,0.00,,BKN085,0.00,VWS V13.01,2013-04-06 02:35:00,
2013-04-05 22:40:00,41.5,27.0,29.82,NW,311,1.0,6.0,56,0.00,,BKN085,0.00,VWS V13.01,2013-04-06 02:40:00,
2013-04-05 22:45:00,41.3,27.2,29.82,NNE,33,0.0,6.0,57,0.00,,CLR,0.00,VWS V13.01,2013-04-06 02:45:00,
2013-04-05 22:50:00,41.0,27.0,29.83,NNW,338,3.0,10.0,57,0.00,,CLR,0.00,VWS V13.01,2013-04-06 02:50:00,
2013-04-05 22:55:00,40.9,26.9,29.83,NW,318,3.0,10.0,57,0.00,,CLR,0.00,VWS V13.01,2013-04-06 02:55:00,
2013-04-05 23:00:00,40.8,27.2,29.83,WNW,303,3.0,10.0,58,0.00,,CLR,0.00,VWS V13.01,2013-04-06 03:00:00,
2013-04-05 23:05:00,40.6,27.4,29.83,NNW,327,0.0,4.0,59,0.00,,CLR,0.00,VWS V13.01,2013-04-06 03:05:00,
2013-04-05 23:10:00,40.4,27.2,29.83,NE,44,0.0,6.0,59,0.00,,CLR,0.00,VWS V13.01,2013-04-06 03:10:00,
2013-04-05 23:15:00,40.2,27.4,29.83,NNW,347,2.0,10.0,60,0.00,,CLR,0.00,VWS V13.01,2013-04-06 03:15:00,
2013-04-05 23:21:00,40.2,27.4,29.84,NW,317,3.0,10.0,60,0.00,,CLR,0.00,VWS V13.01,2013-04-06 03:21:00,
2013-04-05 23:26:00,40.1,27.8,29.84,NW,318,0.0,10.0,61,0.00,,CLR,0.00,VWS V13.01,2013-04-06 03:26:00,
2013-04-05 23:32:00,39.9,27.6,29.84,NNW,329,0.0,0.0,61,0.00,,CLR,0.00,VWS V13.01,2013-04-06 03:32:00,
2013-04-05 23:37:00,39.7,27.4,29.85,NW,321,0.0,5.0,61,0.00,,CLR,0.00,VWS V13.01,2013-04-06 03:37:00,
2013-04-05 23:42:00,39.6,27.3,29.85,NNE,16,1.0,6.0,61,0.00,,CLR,0.00,VWS V13.01,2013-04-06 03:42:00,
2013-04-05 23:47:00,39.4,27.1,29.85,WNW,301,2.0,6.0,61,0.00,,CLR,0.00,VWS V13.01,2013-04-06 03:47:00,
2013-04-05 23:52:00,39.3,27.0,29.85,WNW,296,0.0,10.0,61,0.00,,CLR,0.00,VWS V13.01,2013-04-06 03:52:00,
2013-04-05 23:57:00,39.2,26.9,29.85,NNW,345,2.0,10.0,61,0.00,,CLR,0.00,VWS V13.01,2013-04-06 03:57:00,